Time,TemperatureF,DewpointF,PressureIn,WindDirection,WindDirectionDegrees,WindSpeedMPH,WindSpeedGustMPH,Humidity,HourlyPrecipIn,Conditions,Clouds,dailyrainin,SoftwareType,DateUTC
2013-03-18 00:02:00,43.0,41.0,-100.00,NE,48,4.0,6.0,92,-99.99,,,-99.99,,2013-03-18 07:02:00,
2013-03-18 00:12:00,43.0,41.0,-100.00,NE,45,5.0,6.0,93,-99.99,,,-99.99,,2013-03-18 07:12:00,
2013-03-18 00:22:00,43.0,41.0,-100.00,NE,45,4.0,6.0,93,-99.99,,,-99.99,,2013-03-18 07:22:00,
2013-03-18 00:32:00,42.0,40.0,-100.00,NE,41,4.0,5.0,92,-99.99,,,-99.99,,2013-03-18 07:32:00,
2013-03-18 00:42:00,42.0,40.0,-100.00,NE,46,4.0,7.0,93,-99.99,,,-99.99,,2013-03-18 07:42:00,
2013-03-18 00:52:00,42.0,40.0,-100.00,NE,38,4.0,6.0,93,-99.99,,,-99.99,,2013-03-18 07:52:00,
2013-03-18 01:02:00,41.0,39.0,-100.00,NE,36,5.0,7.0,93,-99.99,,,-99.99,,2013-03-18 08:02:00,
2013-03-18 01:12:00,41.0,39.0,-100.00,NE,46,5.0,7.0,93,-99.99,,,-99.99,,2013-03-18 08:12:00,
2013-03-18 01:22:00,42.0,40.0,-100.00,NE,51,5.0,7.0,93,-99.99,,,-99.99,,2013-03-18 08:22:00,
2013-03-18 01:32:00,42.0,40.0,-100.00,NE,51,5.0,7.0,93,-99.99,,,-99.99,,2013-03-18 08:32:00,
2013-03-18 01:42:00,41.0,39.0,-100.00,NE,34,5.0,8.0,93,-99.99,,,-99.99,,2013-03-18 08:42:00,
2013-03-18 01:52:00,40.0,38.0,-100.00,NE,35,5.0,7.0,93,-99.99,,,-99.99,,2013-03-18 08:52:00,
2013-03-18 02:02:00,40.0,38.0,-100.00,NE,38,5.0,8.0,93,-99.99,,,-99.99,,2013-03-18 09:02:00,
2013-03-18 02:12:00,40.0,38.0,-100.00,NNE,32,5.0,8.0,93,-99.99,,,-99.99,,2013-03-18 09:12:00,
2013-03-18 02:22:00,40.0,38.0,-100.00,NE,53,7.0,9.0,93,-99.99,,,-99.99,,2013-03-18 09:22:00,
2013-03-18 02:32:00,40.0,38.0,-100.00,NE,46,8.0,10.0,92,-99.99,,,-99.99,,2013-03-18 09:32:00,
2013-03-18 02:42:00,40.0,38.0,-100.00,NE,52,8.0,11.0,92,-99.99,,,-99.99,,2013-03-18 09:42:00,
2013-03-18 02:53:00,41.0,39.0,-100.00,NE,52,7.0,10.0,91,-99.99,,,-99.99,,2013-03-18 09:53:00,
2013-03-18 03:03:00,41.0,39.0,-100.00,NE,52,8.0,11.0,91,-99.99,,,-99.99,,2013-03-18 10:03:00,
2013-03-18 03:12:00,41.0,38.0,-100.00,NE,52,7.0,9.0,90,-99.99,,,-99.99,,2013-03-18 10:12:00,
2013-03-18 03:23:00,41.0,38.0,-100.00,ENE,58,8.0,10.0,89,-99.99,,,-99.99,,2013-03-18 10:23:00,
2013-03-18 03:33:00,41.0,38.0,-100.00,NE,47,6.0,10.0,89,-99.99,,,-99.99,,2013-03-18 10:33:00,
2013-03-18 03:42:00,40.0,37.0,-100.00,NE,49,4.0,6.0,90,-99.99,,,-99.99,,2013-03-18 10:42:00,
2013-03-18 03:52:00,39.0,37.0,-100.00,NNE,31,3.0,5.0,91,-99.99,,,-99.99,,2013-03-18 10:52:00,
2013-03-18 04:02:00,39.0,37.0,-100.00,NE,34,4.0,6.0,91,-99.99,,,-99.99,,2013-03-18 11:02:00,
2013-03-18 04:12:00,38.0,36.0,-100.00,NNE,23,4.0,6.0,92,-99.99,,,-99.99,,2013-03-18 11:12:00,
2013-03-18 04:22:00,39.0,37.0,-100.00,NE,37,5.0,8.0,92,-99.99,,,-99.99,,2013-03-18 11:22:00,
2013-03-18 04:31:00,39.0,37.0,-100.00,NE,36,4.0,6.0,92,-99.99,,,-99.99,,2013-03-18 11:31:00,
2013-03-18 04:42:00,39.0,37.0,-100.00,NE,42,5.0,7.0,91,-99.99,,,-99.99,,2013-03-18 11:42:00,
2013-03-18 04:52:00,39.0,37.0,-100.00,NE,38,4.0,7.0,91,-99.99,,,-99.99,,2013-03-18 11:52:00,
2013-03-18 05:01:00,39.0,37.0,-100.00,NE,38,4.0,7.0,91,-99.99,,,-99.99,,2013-03-18 12:01:00,
2013-03-18 05:12:00,39.0,36.0,-100.00,NE,41,4.0,6.0,90,-99.99,,,-99.99,,2013-03-18 12:12:00,
2013-03-18 05:22:00,39.0,36.0,-100.00,NE,41,4.0,6.0,90,-99.99,,,-99.99,,2013-03-18 12:22:00,
2013-03-18 05:32:00,38.0,36.0,-100.00,NNE,30,4.0,6.0,91,-99.99,,,-99.99,,2013-03-18 12:32:00,
2013-03-18 05:42:00,38.0,36.0,-100.00,NNE,32,3.0,6.0,91,-99.99,,,-99.99,,2013-03-18 12:42:00,
2013-03-18 05:52:00,39.0,36.0,-100.00,NE,45,4.0,6.0,90,-99.99,,,-99.99,,2013-03-18 12:52:00,
2013-03-18 06:02:00,38.0,35.0,-100.00,NE,35,3.0,5.0,90,-99.99,,,-99.99,,2013-03-18 13:02:00,
2013-03-18 06:12:00,37.0,35.0,-100.00,NNE,26,4.0,5.0,91,-99.99,,,-99.99,,2013-03-18 13:12:00,
2013-03-18 06:22:00,37.0,35.0,-100.00,NNE,27,4.0,6.0,92,-99.99,,,-99.99,,2013-03-18 13:22:00,
2013-03-18 06:32:00,37.0,35.0,-100.00,NNE,25,4.0,6.0,93,-99.99,,,-99.99,,2013-03-18 13:32:00,
2013-03-18 06:42:00,37.0,35.0,-100.00,NE,41,5.0,8.0,93,-99.99,,,-99.99,,2013-03-18 13:42:00,
2013-03-18 06:52:00,37.0,35.0,-100.00,NE,37,6.0,8.0,92,-99.99,,,-99.99,,2013-03-18 13:52:00,
2013-03-18 07:02:00,37.0,35.0,-100.00,NE,37,5.0,8.0,92,-99.99,,,-99.99,,2013-03-18 14:02:00,
2013-03-18 07:12:00,38.0,36.0,-100.00,NE,40,6.0,8.0,92,-99.99,,,-99.99,,2013-03-18 14:12:00,
2013-03-18 07:22:00,38.0,36.0,-100.00,NE,40,5.0,8.0,92,-99.99,,,-99.99,,2013-03-18 14:22:00,
2013-03-18 07:32:00,38.0,36.0,-100.00,NE,45,7.0,10.0,92,-99.99,,,-99.99,,2013-03-18 14:32:00,
2013-03-18 07:42:00,38.0,36.0,-100.00,NE,45,8.0,11.0,91,-99.99,,,-99.99,,2013-03-18 14:42:00,
2013-03-18 07:52:00,39.0,36.0,-100.00,NE,49,9.0,12.0,89,-99.99,,,-99.99,,2013-03-18 14:52:00,
2013-03-18 08:02:00,39.0,36.0,-100.00,NE,40,6.0,10.0,88,-99.99,,,-99.99,,2013-03-18 15:02:00,
2013-03-18 08:12:00,40.0,37.0,-100.00,NE,41,5.0,8.0,88,-99.99,,,-99.99,,2013-03-18 15:12:00,
2013-03-18 08:22:00,40.0,37.0,-100.00,NE,41,5.0,8.0,88,-99.99,,,-99.99,,2013-03-18 15:22:00,
2013-03-18 08:33:00,42.0,38.0,-100.00,NE,39,6.0,8.0,85,-99.99,,,-99.99,,2013-03-18 15:33:00,
2013-03-18 08:42:00,44.0,39.0,-100.00,NE,40,7.0,10.0,81,-99.99,,,-99.99,,2013-03-18 15:42:00,
2013-03-18 08:52:00,46.0,40.0,-100.00,NE,49,6.0,9.0,78,-99.99,,,-99.99,,2013-03-18 15:52:00,
2013-03-18 09:02:00,47.0,39.0,-100.00,ENE,58,6.0,8.0,75,-99.99,,,-99.99,,2013-03-18 16:02:00,
2013-03-18 09:12:00,50.0,41.0,-100.00,NE,51,4.0,7.0,71,-99.99,,,-99.99,,2013-03-18 16:12:00,
2013-03-18 09:22:00,53.0,42.0,-100.00,NNE,23,2.0,3.0,67,-99.99,,,-99.99,,2013-03-18 16:22:00,
2013-03-18 09:32:00,55.0,43.0,-100.00,North,6,1.0,2.0,63,-99.99,,,-99.99,,2013-03-18 16:32:00,
2013-03-18 09:42:00,57.0,42.0,-100.00,West,261,1.0,2.0,57,-99.99,,,-99.99,,2013-03-18 16:42:00,
2013-03-18 09:52:00,57.0,40.0,-100.00,WSW,245,2.0,4.0,53,-99.99,,,-99.99,,2013-03-18 16:52:00,
2013-03-18 10:02:00,57.0,41.0,-100.00,WSW,247,4.0,6.0,55,-99.99,,,-99.99,,2013-03-18 17:02:00,
2013-03-18 10:12:00,57.0,41.0,-100.00,WSW,239,5.0,7.0,54,-99.99,,,-99.99,,2013-03-18 17:12:00,
2013-03-18 10:21:00,58.0,40.0,-100.00,SW,233,5.0,7.0,51,-99.99,,,-99.99,,2013-03-18 17:21:00,
2013-03-18 10:32:00,59.0,39.0,-100.00,WSW,239,5.0,8.0,48,-99.99,,,-99.99,,2013-03-18 17:32:00,
2013-03-18 10:42:00,61.0,34.0,-100.00,WSW,241,4.0,7.0,36,-99.99,,,-99.99,,2013-03-18 17:42:00,
2013-03-18 10:52:00,61.0,32.0,-100.00,WSW,239,5.0,9.0,33,-99.99,,,-99.99,,2013-03-18 17:52:00,
2013-03-18 11:02:00,62.0,31.0,-100.00,SW,232,5.0,8.0,31,-99.99,,,-99.99,,2013-03-18 18:02:00,
2013-03-18 11:12:00,63.0,32.0,-100.00,SW,233,5.0,9.0,31,-99.99,,,-99.99,,2013-03-18 18:12:00,
2013-03-18 11:22:00,64.0,29.0,-100.00,SW,225,5.0,10.0,27,-99.99,,,-99.99,,2013-03-18 18:22:00,
2013-03-18 11:32:00,65.0,27.0,-100.00,SW,227,6.0,11.0,24,-99.99,,,-99.99,,2013-03-18 18:32:00,
2013-03-18 11:42:00,66.0,27.0,-100.00,WSW,244,5.0,9.0,23,-99.99,,,-99.99,,2013-03-18 18:42:00,
2013-03-18 11:52:00,66.0,29.0,-100.00,WSW,240,6.0,10.0,25,-99.99,,,-99.99,,2013-03-18 18:52:00,
2013-03-18 12:02:00,66.0,29.0,-100.00,WSW,240,6.0,10.0,25,-99.99,,,-99.99,,2013-03-18 19:02:00,
2013-03-18 12:11:00,66.0,29.0,-100.00,SW,222,7.0,11.0,25,-99.99,,,-99.99,,2013-03-18 19:11:00,
2013-03-18 12:22:00,66.0,29.0,-100.00,SW,232,10.0,14.0,25,-99.99,,,-99.99,,2013-03-18 19:22:00,
2013-03-18 12:32:00,66.0,32.0,-100.00,WSW,241,10.0,15.0,28,-99.99,,,-99.99,,2013-03-18 19:32:00,
2013-03-18 12:42:00,65.0,33.0,-100.00,WSW,238,10.0,14.0,30,-99.99,,,-99.99,,2013-03-18 19:42:00,
2013-03-18 12:52:00,65.0,34.0,-100.00,SW,218,9.0,12.0,31,-99.99,,,-99.99,,2013-03-18 19:52:00,
2013-03-18 13:02:00,65.0,31.0,-100.00,SW,236,7.0,12.0,28,-99.99,,,-99.99,,2013-03-18 20:02:00,
2013-03-18 13:12:00,66.0,33.0,-100.00,SW,231,7.0,11.0,29,-99.99,,,-99.99,,2013-03-18 20:12:00,
2013-03-18 13:22:00,67.0,34.0,-100.00,SW,224,7.0,13.0,29,-99.99,,,-99.99,,2013-03-18 20:22:00,
2013-03-18 13:32:00,67.0,34.0,-100.00,WSW,237,7.0,12.0,29,-99.99,,,-99.99,,2013-03-18 20:32:00,
2013-03-18 13:42:00,67.0,33.0,-100.00,SW,234,8.0,13.0,28,-99.99,,,-99.99,,2013-03-18 20:42:00,
2013-03-18 13:52:00,67.0,33.0,-100.00,WSW,242,8.0,14.0,28,-99.99,,,-99.99,,2013-03-18 20:52:00,
2013-03-18 14:02:00,67.0,33.0,-100.00,WSW,242,8.0,14.0,28,-99.99,,,-99.99,,2013-03-18 21:02:00,
2013-03-18 14:11:00,67.0,32.0,-100.00,SW,232,9.0,13.0,27,-99.99,,,-99.99,,2013-03-18 21:11:00,
2013-03-18 14:22:00,67.0,33.0,-100.00,SW,226,9.0,14.0,28,-99.99,,,-99.99,,2013-03-18 21:22:00,
2013-03-18 14:32:00,67.0,34.0,-100.00,SW,235,9.0,15.0,29,-99.99,,,-99.99,,2013-03-18 21:32:00,
2013-03-18 14:42:00,67.0,35.0,-100.00,SW,229,10.0,15.0,30,-99.99,,,-99.99,,2013-03-18 21:42:00,
2013-03-18 14:52:00,66.0,34.0,-100.00,SW,234,10.0,15.0,30,-99.99,,,-99.99,,2013-03-18 21:52:00,
2013-03-18 15:03:00,67.0,35.0,-100.00,SW,224,10.0,15.0,30,-99.99,,,-99.99,,2013-03-18 22:03:00,
2013-03-18 15:12:00,66.0,35.0,-100.00,SW,233,10.0,15.0,32,-99.99,,,-99.99,,2013-03-18 22:12:00,
2013-03-18 15:22:00,66.0,39.0,-100.00,SW,229,11.0,15.0,37,-99.99,,,-99.99,,2013-03-18 22:22:00,
2013-03-18 15:32:00,66.0,41.0,-100.00,SW,222,11.0,16.0,40,-99.99,,,-99.99,,2013-03-18 22:32:00,
2013-03-18 15:42:00,65.0,42.0,-100.00,SW,222,11.0,15.0,43,-99.99,,,-99.99,,2013-03-18 22:42:00,
2013-03-18 15:52:00,65.0,43.0,-100.00,SW,227,10.0,14.0,44,-99.99,,,-99.99,,2013-03-18 22:52:00,
2013-03-18 16:02:00,66.0,43.0,-100.00,SW,231,10.0,14.0,44,-99.99,,,-99.99,,2013-03-18 23:02:00,
2013-03-18 16:12:00,65.0,43.0,-100.00,SW,225,10.0,15.0,45,-99.99,,,-99.99,,2013-03-18 23:12:00,
2013-03-18 16:22:00,65.0,44.0,-100.00,SW,217,11.0,16.0,46,-99.99,,,-99.99,,2013-03-18 23:22:00,
2013-03-18 16:32:00,66.0,45.0,-100.00,SW,225,10.0,14.0,47,-99.99,,,-99.99,,2013-03-18 23:32:00,
2013-03-18 16:42:00,65.0,44.0,-100.00,SW,227,11.0,14.0,47,-99.99,,,-99.99,,2013-03-18 23:42:00,
2013-03-18 16:52:00,64.0,45.0,-100.00,SW,224,11.0,16.0,50,-99.99,,,-99.99,,2013-03-18 23:52:00,
2013-03-18 17:02:00,64.0,45.0,-100.00,SW,224,11.0,16.0,50,-99.99,,,-99.99,,2013-03-19 00:02:00,
2013-03-18 17:12:00,63.0,47.0,-100.00,SW,229,11.0,17.0,55,-99.99,,,-99.99,,2013-03-19 00:12:00,
2013-03-18 17:22:00,62.0,47.0,-100.00,SW,230,10.0,16.0,57,-99.99,,,-99.99,,2013-03-19 00:22:00,
2013-03-18 17:32:00,62.0,47.0,-100.00,SW,223,10.0,16.0,57,-99.99,,,-99.99,,2013-03-19 00:32:00,
2013-03-18 17:42:00,62.0,47.0,-100.00,SW,223,10.0,16.0,57,-99.99,,,-99.99,,2013-03-19 00:42:00,
2013-03-18 17:52:00,62.0,47.0,-100.00,SW,229,8.0,11.0,57,-99.99,,,-99.99,,2013-03-19 00:52:00,
2013-03-18 18:02:00,62.0,47.0,-100.00,SW,231,7.0,10.0,59,-99.99,,,-99.99,,2013-03-19 01:02:00,
2013-03-18 18:12:00,61.0,47.0,-100.00,SW,234,7.0,10.0,61,-99.99,,,-99.99,,2013-03-19 01:12:00,
2013-03-18 18:22:00,60.0,47.0,-100.00,SW,232,6.0,10.0,63,-99.99,,,-99.99,,2013-03-19 01:22:00,
2013-03-18 18:32:00,59.0,47.0,-100.00,SW,233,7.0,9.0,65,-99.99,,,-99.99,,2013-03-19 01:32:00,
2013-03-18 18:42:00,59.0,48.0,-100.00,SW,227,5.0,9.0,66,-99.99,,,-99.99,,2013-03-19 01:42:00,
2013-03-18 18:52:00,58.0,47.0,-100.00,SW,231,6.0,9.0,68,-99.99,,,-99.99,,2013-03-19 01:52:00,
2013-03-18 19:12:00,57.0,48.0,-100.00,SW,236,6.0,10.0,72,-99.99,,,-99.99,,2013-03-19 02:12:00,
2013-03-18 19:22:00,56.0,48.0,-100.00,SW,230,5.0,7.0,74,-99.99,,,-99.99,,2013-03-19 02:22:00,
2013-03-18 19:32:00,56.0,48.0,-100.00,SW,229,6.0,8.0,75,-99.99,,,-99.99,,2013-03-19 02:32:00,
2013-03-18 19:42:00,55.0,48.0,-100.00,SW,230,5.0,7.0,76,-99.99,,,-99.99,,2013-03-19 02:42:00,
2013-03-18 19:52:00,55.0,48.0,-100.00,SW,220,3.0,5.0,77,-99.99,,,-99.99,,2013-03-19 02:52:00,
2013-03-18 20:01:00,54.0,47.0,-100.00,WSW,253,3.0,5.0,77,-99.99,,,-99.99,,2013-03-19 03:01:00,
2013-03-18 20:11:00,54.0,47.0,-100.00,NW,310,2.0,4.0,78,-99.99,,,-99.99,,2013-03-19 03:11:00,
2013-03-18 20:22:00,53.0,47.0,-100.00,NE,50,2.0,4.0,80,-99.99,,,-99.99,,2013-03-19 03:22:00,
2013-03-18 20:32:00,53.0,47.0,-100.00,NNE,28,2.0,3.0,80,-99.99,,,-99.99,,2013-03-19 03:32:00,
2013-03-18 20:42:00,53.0,47.0,-100.00,NE,55,3.0,4.0,81,-99.99,,,-99.99,,2013-03-19 03:42:00,
2013-03-18 20:53:00,53.0,47.0,-100.00,NE,45,2.0,3.0,81,-99.99,,,-99.99,,2013-03-19 03:53:00,
2013-03-18 21:02:00,52.0,46.0,-100.00,NNE,32,2.0,3.0,81,-99.99,,,-99.99,,2013-03-19 04:02:00,
2013-03-18 21:13:00,51.0,46.0,-100.00,NE,44,2.0,3.0,82,-99.99,,,-99.99,,2013-03-19 04:13:00,
2013-03-18 21:22:00,51.0,46.0,-100.00,NNE,32,2.0,3.0,83,-99.99,,,-99.99,,2013-03-19 04:22:00,
2013-03-18 21:32:00,50.0,45.0,-100.00,NE,52,3.0,4.0,84,-99.99,,,-99.99,,2013-03-19 04:32:00,
2013-03-18 21:42:00,50.0,45.0,-100.00,NE,40,2.0,4.0,84,-99.99,,,-99.99,,2013-03-19 04:42:00,
2013-03-18 21:52:00,50.0,45.0,-100.00,NE,39,1.0,2.0,84,-99.99,,,-99.99,,2013-03-19 04:52:00,
2013-03-18 22:02:00,49.0,44.0,-100.00,NE,52,2.0,4.0,84,-99.99,,,-99.99,,2013-03-19 05:02:00,
2013-03-18 22:11:00,48.0,44.0,-100.00,NE,44,3.0,3.0,86,-99.99,,,-99.99,,2013-03-19 05:11:00,
2013-03-18 22:22:00,48.0,44.0,-100.00,NE,40,2.0,3.0,86,-99.99,,,-99.99,,2013-03-19 05:22:00,
2013-03-18 22:32:00,48.0,44.0,-100.00,NE,41,2.0,3.0,87,-99.99,,,-99.99,,2013-03-19 05:32:00,
2013-03-18 22:42:00,48.0,44.0,-100.00,NE,42,0.0,2.0,86,-99.99,,,-99.99,,2013-03-19 05:42:00,
2013-03-18 22:52:00,48.0,44.0,-100.00,SSE,166,1.0,2.0,87,-99.99,,,-99.99,,2013-03-19 05:52:00,
2013-03-18 23:02:00,48.0,45.0,-100.00,NE,47,1.0,3.0,88,-99.99,,,-99.99,,2013-03-19 06:02:00,
2013-03-18 23:12:00,48.0,45.0,-100.00,North,7,0.0,2.0,89,-99.99,,,-99.99,,2013-03-19 06:12:00,
2013-03-18 23:22:00,48.0,45.0,-100.00,NNE,25,1.0,3.0,89,-99.99,,,-99.99,,2013-03-19 06:22:00,
2013-03-18 23:32:00,48.0,45.0,-100.00,NNE,18,1.0,2.0,89,-99.99,,,-99.99,,2013-03-19 06:32:00,
2013-03-18 23:42:00,46.0,43.0,-100.00,NNE,32,2.0,2.0,88,-99.99,,,-99.99,,2013-03-19 06:42:00,
2013-03-18 23:52:00,46.0,43.0,-100.00,NNE,25,2.0,3.0,90,-99.99,,,-99.99,,2013-03-19 06:52:00,